sat.trackr.live / text

‹ back to catalog

KUIPER-00274

NORAD 67792 · 2026-030AE

PAYLOAD ACTIVE UNKNOWN

§ Identity

Operator
Country
US
Launch date
2026-02-12
Launch site
FRGUI
Launch vehicle
Mass (kg)
RCS (m²)

External: N2YO · Heavens-Above · Gunter

§ Orbital elements

Epoch: 2026-09-20T03:33:56.405664Z

Period
97.30 min
Inclination
51.9011°
Eccentricity
0.0000530
Mean motion
14.79932747 rev/d
Perigee alt
629.2 km
Apogee alt
629.9 km
Semi-major
7,007.7 km
B*
2.7755e-4
RAAN
63.2335°
Arg perigee
133.5104°
Mean anomaly
226.5903°
Rev number
3,411

§ Raw data

KUIPER-002741 67792U 26030AE  26263.14856951  .00001895  00000+0  27755-3 0  99912 67792  51.9011  63.2335 0000530 133.5104 226.5903 14.79932747 34116

JSON: /api/v1/satellites/67792 · /tle

For live sub-satellite position, see the globe view (requires WebGL).

§ Visibility from observer

Set your observer location to see the next 7 days of passes ≥ 10°. The values pass through the URL so the page stays shareable.

No JS? Fill the form by hand. The geolocation button needs JavaScript.